QPF
0.00 0.00 0.01 0.01 0.01 0.01 0.01 0.01 0.02 0.01 0.01 0.03 0.04 0.04 0.05 0.07 0.09 0.09 0.06 0.05 0.05 0.05 0.05 0.04 0.04 0.04 0.05 0.05 0.05 0.05 0.05 0.05 0.04 0.04 0.06 0.07 0.09 0.07 0.04 0.03 0.03 0.03 0.03
0.01 0.01 0.01 0.01 0.01 0.01 0.01 0.01 0.01 0.01 0.01 0.03 0.03 0.03 0.04 0.05 0.05 0.05 0.05 0.04 0.04 0.05 0.05 0.05 0.05 0.05 0.06 0.06 0.06 0.06 0.06 0.06 0.06 0.05 0.05 0.06 0.06 0.07 0.07 0.05 0.03 0.02 0.02
0.01 0.01 0.02 0.02 0.02 0.01 0.01 0.01 0.01 0.01 0.01 0.02 0.02 0.02 0.03 0.03 0.04 0.05 0.06 0.05 0.05 0.04 0.04 0.04 0.05 0.05 0.06 0.06 0.06 0.06 0.07 0.05 0.05 0.05 0.05 0.05 0.04 0.04 0.05 0.04 0.03 0.03 0.02
0.01 0.02 0.02 0.02 0.02 0.01 0.01 0.01 0.01 0.01 0.02 0.02 0.02 0.02 0.03 0.04 0.05 0.05 0.04 0.04 0.04 0.05 0.04 0.04 0.04 0.04 0.05 0.06 0.05 0.06 0.06 0.06 0.06 0.06 0.05 0.04 0.03 0.03 0.03 0.03 0.03 0.03 0.03
0.01 0.01 0.01 0.01 0.02 0.01 0.01 0.01 0.02 0.01 0.01 0.02 0.03 0.02 0.02 0.04 0.04 0.04 0.04 0.04 0.04 0.04 0.04 0.04 0.04 0.05 0.05 0.06 0.04 0.05 0.05 0.06 0.06 0.06 0.05 0.04 0.04 0.03 0.02 0.02 0.02 0.03 0.02
0.01 0.02 0.02 0.02 0.02 0.02 0.01 0.01 0.01 0.01 0.01 0.01 0.02 0.01 0.01 0.01 0.02 0.03 0.03 0.02 0.03 0.03 0.04 0.05 0.06 0.06 0.06 0.06 0.03 0.03 0.04 0.05 0.06 0.06 0.05 0.05 0.04 0.04 0.03 0.03 0.03 0.03 0.02
0.02 0.02 0.02 0.02 0.02 0.02 0.02 0.02 0.02 0.01 0.02 0.02 0.02 0.02 0.02 0.02 0.02 0.02 0.02 0.02 0.03 0.04 0.06 0.08 0.08 0.08 0.08 0.08 0.05 0.04 0.03 0.04 0.04 0.05 0.05 0.05 0.04 0.04 0.04 0.04 0.04 0.04 0.04
0.02 0.02 0.01 0.01 0.01 0.01 0.01 0.02 0.02 0.02 0.03 0.03 0.03 0.03 0.02 0.03 0.03 0.02 0.03 0.04 0.05 0.05 0.06 0.07 0.08 0.09 0.08 0.07 0.07 0.06 0.06 0.04 0.04 0.03 0.04 0.05 0.05 0.06 0.05 0.05 0.05 0.05 0.05
0.01 0.01 0.01 0.02 0.01 0.01 0.01 0.02 0.03 0.05 0.06 0.05 0.05 0.05 0.04 0.04 0.03 0.02 0.03 0.07 0.10 0.10 0.08 0.07 0.07 0.07 0.08 0.07 0.07 0.09 0.08 0.05 0.04 0.05 0.05 0.05 0.05 0.06 0.07 0.07 0.07 0.06 0.05
0.01 0.01 0.01 0.01 0.02 0.01 0.01 0.02 0.04 0.05 0.06 0.05 0.03 0.02 0.01 0.01 0.02 0.02 0.01 0.02 0.06 0.10 0.11 0.10 0.10 0.09 0.10 0.09 0.07 0.09 0.08 0.07 0.06 0.07 0.07 0.07 0.07 0.07 0.06 0.06 0.06 0.06 0.05
0.01 0.01 0.01 0.01 0.02 0.02 0.02 0.02 0.03 0.03 0.04 0.05 0.03 0.01 0.01 0.01 0.01 0.01 0.01 0.01 0.02 0.03 0.06 0.07 0.07 0.08 0.09 0.09 0.08 0.08 0.08 0.08 0.08 0.08 0.08 0.07 0.06 0.06 0.06 0.06 0.06 0.06 0.05
0.01 0.01 0.02 0.02 0.01 0.02 0.03 0.03 0.04 0.04 0.02 0.02 0.03 0.02 0.01 0.01 0.01 0.01 0.01 0.01 0.01 0.01 0.02 0.03 0.04 0.04 0.04 0.06 0.06 0.07 0.07 0.07 0.08 0.08 0.08 0.07 0.06 0.06 0.05 0.05 0.05 0.05 0.05
0.01 0.01 0.02 0.01 0.01 0.02 0.05 0.05 0.04 0.05 0.03 0.02 0.02 0.02 0.02 0.01 0.02 0.02 0.02 0.01 0.01 0.02 0.03 0.03 0.04 0.03 0.04 0.04 0.05 0.06 0.06 0.06 0.07 0.07 0.07 0.07 0.05 0.05 0.04 0.04 0.03 0.03 0.04
0.01 0.01 0.01 0.01 0.01 0.01 0.03 0.07 0.05 0.03 0.03 0.03 0.03 0.03 0.02 0.02 0.02 0.03 0.02 0.02 0.02 0.03 0.04 0.05 0.05 0.04 0.03 0.03 0.04 0.05 0.05 0.06 0.06 0.07 0.06 0.05 0.05 0.05 0.04 0.04 0.04 0.04 0.04
0.01 0.01 0.01 0.01 0.01 0.02 0.02 0.06 0.08 0.05 0.03 0.04 0.06 0.05 0.03 0.02 0.02 0.03 0.03 0.03 0.03 0.04 0.04 0.05 0.06 0.04 0.03 0.03 0.03 0.03 0.04 0.04 0.05 0.06 0.05 0.04 0.04 0.04 0.04 0.03 0.03 0.03 0.03
0.01 0.01 0.01 0.02 0.02 0.01 0.02 0.04 0.09 0.08 0.06 0.09 0.09 0.07 0.04 0.03 0.03 0.03 0.03 0.03 0.03 0.03 0.03 0.02 0.03 0.04 0.03 0.03 0.02 0.02 0.02 0.03 0.03 0.04 0.03 0.03 0.03 0.03 0.03 0.03 0.03 0.03 0.03
0.02 0.02 0.02 0.02 0.02 0.02 0.03 0.04 0.08 0.11 0.08 0.08 0.08 0.06 0.04 0.03 0.03 0.02 0.02 0.03 0.02 0.02 0.01 0.01 0.01 0.02 0.02 0.02 0.02 0.02 0.02 0.02 0.03 0.02 0.02 0.02 0.03 0.03 0.04 0.03 0.03 0.04 0.04
0.03 0.03 0.02 0.02 0.02 0.03 0.04 0.04 0.07 0.10 0.07 0.06 0.06 0.05 0.04 0.04 0.03 0.03 0.02 0.02 0.01 0.01 0.01 0.01 0.01 0.01 0.01 0.01 0.01 0.01 0.01 0.01 0.01 0.01 0.01 0.02 0.02 0.03 0.04 0.03 0.03 0.03 0.04
0.04 0.04 0.04 0.04 0.04 0.04 0.04 0.04 0.05 0.07 0.07 0.06 0.07 0.07 0.05 0.04 0.04 0.03 0.02 0.01 0.01 0.01 0.01 0.02 0.02 0.02 0.02 0.02 0.02 0.02 0.01 0.01 0.01 0.01 0.01 0.02 0.02 0.03 0.03 0.03 0.03 0.04 0.04
0.05 0.05 0.05 0.05 0.05 0.04 0.03 0.04 0.05 0.06 0.06 0.07 0.07 0.07 0.06 0.04 0.03 0.03 0.02 0.02 0.02 0.02 0.02 0.02 0.02 0.02 0.02 0.03 0.03 0.02 0.02 0.02 0.01 0.02 0.02 0.02 0.02 0.02 0.03 0.03 0.03 0.04 0.05
0.04 0.06 0.06 0.04 0.05 0.06 0.05 0.04 0.04 0.04 0.05 0.05 0.05 0.04 0.04 0.04 0.03 0.02 0.02 0.02 0.02 0.03 0.03 0.03 0.03 0.03 0.04 0.04 0.04 0.03 0.03 0.03 0.03 0.03 0.02 0.03 0.03 0.03 0.03 0.03 0.04 0.04 0.03
0.03 0.04 0.04 0.05 0.05 0.04 0.04 0.04 0.03 0.04 0.04 0.03 0.03 0.03 0.03 0.03 0.03 0.01 0.01 0.01 0.02 0.02 0.03 0.03 0.03 0.04 0.05 0.04 0.04 0.04 0.04 0.04 0.04 0.03 0.03 0.03 0.03 0.03 0.03 0.03 0.03 0.04 0.03
0.01 0.02 0.02 0.02 0.03 0.03 0.03 0.04 0.03 0.03 0.03 0.03 0.02 0.02 0.01 0.02 0.02 0.02 0.02 0.02 0.02 0.02 0.02 0.02 0.03 0.03 0.04 0.04 0.04 0.04 0.05 0.05 0.04 0.04 0.04 0.04 0.04 0.04 0.04 0.04 0.04 0.03 0.03
0.01 0.01 0.02 0.02 0.02 0.03 0.03 0.03 0.03 0.03 0.02 0.02 0.02 0.01 0.01 0.01 0.01 0.02 0.02 0.02 0.02 0.01 0.01 0.02 0.03 0.03 0.03 0.03 0.04 0.04 0.04 0.04 0.03 0.04 0.05 0.06 0.06 0.05 0.05 0.04 0.04 0.04 0.03
0.01 0.01 0.01 0.02 0.02 0.02 0.03 0.03 0.03 0.02 0.01 0.02 0.01 0.01 0.02 0.02 0.02 0.02 0.03 0.04 0.04 0.04 0.03 0.03 0.03 0.03 0.03 0.03 0.03 0.03 0.05 0.05 0.04 0.03 0.04 0.05 0.06 0.06 0.06 0.05 0.05 0.04 0.04
0.02 0.01 0.02 0.02 0.03 0.03 0.02 0.02 0.02 0.01 0.01 0.01 0.01 0.01 0.01 0.01 0.01 0.02 0.03 0.04 0.04 0.04 0.04 0.03 0.03 0.02 0.02 0.01 0.02 0.02 0.03 0.03 0.03 0.04 0.04 0.04 0.04 0.05 0.07 0.08 0.07 0.06 0.05
MSLP
1012.12 1012.56 1012.98 1013.34 1013.61 1013.77 1013.81 1013.77 1013.67 1013.55 1013.44 1013.35 1013.30 1013.29 1013.29 1013.30 1013.30 1013.27 1013.22 1013.16 1013.09 1013.03 1013.00 1013.00 1013.04 1013.10 1013.18 1013.27 1013.34 1013.40 1013.44 1013.47 1013.48 1013.49 1013.51 1013.55 1013.60 1013.67 1013.75 1013.85 1013.95 1014.05 1014.15
1011.27 1011.68 1012.08 1012.42 1012.68 1012.84 1012.91 1012.90 1012.84 1012.76 1012.68 1012.64 1012.63 1012.66 1012.71 1012.77 1012.81 1012.84 1012.84 1012.83 1012.80 1012.77 1012.75 1012.76 1012.79 1012.85 1012.93 1013.01 1013.10 1013.18 1013.25 1013.31 1013.36 1013.41 1013.46 1013.52 1013.58 1013.64 1013.70 1013.77 1013.84 1013.90 1013.97
1010.39 1010.78 1011.15 1011.47 1011.72 1011.89 1011.99 1012.02 1012.01 1011.98 1011.97 1011.98 1012.02 1012.10 1012.20 1012.31 1012.41 1012.49 1012.54 1012.57 1012.58 1012.58 1012.59 1012.60 1012.64 1012.69 1012.75 1012.83 1012.92 1013.01 1013.09 1013.18 1013.26 1013.34 1013.42 1013.50 1013.57 1013.63 1013.68 1013.72 1013.76 1013.78 1013.80
1009.52 1009.89 1010.23 1010.54 1010.78 1010.97 1011.10 1011.18 1011.23 1011.27 1011.32 1011.39 1011.50 1011.63 1011.77 1011.91 1012.05 1012.16 1012.25 1012.31 1012.35 1012.38 1012.41 1012.44 1012.48 1012.52 1012.59 1012.66 1012.74 1012.83 1012.92 1013.02 1013.13 1013.23 1013.34 1013.44 1013.53 1013.60 1013.65 1013.68 1013.69 1013.68 1013.65
1008.71 1009.06 1009.39 1009.68 1009.93 1010.13 1010.29 1010.42 1010.53 1010.64 1010.76 1010.89 1011.04 1011.21 1011.37 1011.53 1011.68 1011.80 1011.90 1011.98 1012.04 1012.09 1012.14 1012.18 1012.23 1012.29 1012.35 1012.43 1012.51 1012.59 1012.69 1012.80 1012.92 1013.04 1013.17 1013.30 1013.42 1013.51 1013.57 1013.60 1013.60 1013.56 1013.50
1007.98 1008.33 1008.65 1008.93 1009.18 1009.40 1009.60 1009.77 1009.94 1010.11 1010.28 1010.45 1010.63 1010.81 1010.97 1011.12 1011.25 1011.36 1011.45 1011.53 1011.59 1011.66 1011.73 1011.80 1011.87 1011.95 1012.03 1012.11 1012.19 1012.28 1012.37 1012.49 1012.61 1012.75 1012.90 1013.05 1013.19 1013.31 1013.40 1013.45 1013.45 1013.41 1013.33
1007.38 1007.73 1008.04 1008.32 1008.57 1008.80 1009.02 1009.23 1009.44 1009.64 1009.85 1010.05 1010.23 1010.40 1010.54 1010.65 1010.75 1010.82 1010.89 1010.95 1011.02 1011.10 1011.19 1011.29 1011.39 1011.50 1011.60 1011.70 1011.79 1011.88 1011.98 1012.09 1012.21 1012.36 1012.52 1012.68 1012.85 1013.00 1013.11 1013.19 1013.21 1013.18 1013.10
1006.93 1007.28 1007.58 1007.85 1008.09 1008.33 1008.55 1008.78 1009.01 1009.24 1009.45 1009.65 1009.83 1009.97 1010.07 1010.14 1010.19 1010.23 1010.26 1010.30 1010.37 1010.46 1010.58 1010.71 1010.85 1011.00 1011.12 1011.24 1011.34 1011.43 1011.52 1011.61 1011.73 1011.86 1012.02 1012.20 1012.38 1012.55 1012.69 1012.80 1012.86 1012.86 1012.80
1006.63 1006.97 1007.26 1007.51 1007.74 1007.96 1008.18 1008.41 1008.64 1008.87 1009.08 1009.27 1009.42 1009.53 1009.60 1009.63 1009.63 1009.63 1009.64 1009.67 1009.74 1009.85 1009.99 1010.15 1010.32 1010.49 1010.64 1010.77 1010.87 1010.95 1011.02 1011.09 1011.18 1011.29 1011.43 1011.60 1011.78 1011.96 1012.13 1012.27 1012.37 1012.41 1012.39
1006.47 1006.80 1007.07 1007.30 1007.50 1007.70 1007.89 1008.10 1008.31 1008.52 1008.72 1008.89 1009.03 1009.11 1009.15 1009.16 1009.14 1009.11 1009.11 1009.13 1009.20 1009.32 1009.47 1009.65 1009.84 1010.02 1010.17 1010.29 1010.38 1010.44 1010.48 1010.51 1010.56 1010.64 1010.75 1010.89 1011.06 1011.24 1011.42 1011.59 1011.72 1011.81 1011.84
1006.46 1006.76 1007.00 1007.19 1007.35 1007.51 1007.67 1007.84 1008.03 1008.22 1008.40 1008.55 1008.67 1008.74 1008.77 1008.77 1008.75 1008.72 1008.71 1008.73 1008.80 1008.91 1009.06 1009.23 1009.41 1009.57 1009.71 1009.80 1009.86 1009.87 1009.87 1009.86 1009.86 1009.89 1009.96 1010.07 1010.21 1010.39 1010.57 1010.75 1010.91 1011.04 1011.12
1006.56 1006.82 1007.02 1007.16 1007.28 1007.38 1007.50 1007.63 1007.78 1007.94 1008.10 1008.25 1008.36 1008.44 1008.48 1008.49 1008.47 1008.45 1008.45 1008.47 1008.52 1008.61 1008.73 1008.86 1009.00 1009.12 1009.20 1009.24 1009.24 1009.21 1009.15 1009.09 1009.04 1009.02 1009.05 1009.12 1009.24 1009.40 1009.58 1009.77 1009.96 1010.12 1010.25
1006.76 1006.97 1007.11 1007.20 1007.26 1007.31 1007.37 1007.46 1007.57 1007.71 1007.85 1007.99 1008.12 1008.21 1008.27 1008.29 1008.29 1008.28 1008.27 1008.28 1008.30 1008.34 1008.40 1008.47 1008.53 1008.57 1008.58 1008.56 1008.49 1008.40 1008.29 1008.18 1008.09 1008.04 1008.03 1008.08 1008.17 1008.31 1008.49 1008.68 1008.87 1009.06 1009.23
1007.04 1007.19 1007.27 1007.29 1007.29 1007.28 1007.29 1007.32 1007.40 1007.51 1007.64 1007.78 1007.91 1008.02 1008.10 1008.14 1008.16 1008.14 1008.12 1008.09 1008.06 1008.03 1008.01 1007.99 1007.95 1007.90 1007.82 1007.71 1007.58 1007.43 1007.28 1007.14 1007.03 1006.95 1006.92 1006.95 1007.03 1007.16 1007.32 1007.51 1007.72 1007.92 1008.11
1007.38 1007.46 1007.46 1007.42 1007.35 1007.28 1007.24 1007.23 1007.27 1007.35 1007.47 1007.60 1007.74 1007.85 1007.94 1007.99 1008.00 1007.97 1007.91 1007.82 1007.72 1007.61 1007.49 1007.36 1007.22 1007.07 1006.91 1006.73 1006.55 1006.36 1006.19 1006.03 1005.91 1005.83 1005.79 1005.81 1005.88 1006.00 1006.16 1006.34 1006.54 1006.75 1006.96
1007.75 1007.75 1007.68 1007.56 1007.43 1007.31 1007.22 1007.18 1007.18 1007.24 1007.34 1007.45 1007.58 1007.69 1007.76 1007.79 1007.78 1007.71 1007.60 1007.45 1007.27 1007.07 1006.85 1006.63 1006.40 1006.16 1005.93 1005.71 1005.49 1005.29 1005.10 1004.95 1004.83 1004.75 1004.72 1004.74 1004.80 1004.90 1005.05 1005.22 1005.41 1005.62 1005.83
1008.12 1008.04 1007.90 1007.73 1007.55 1007.38 1007.25 1007.18 1007.15 1007.18 1007.25 1007.35 1007.44 1007.52 1007.57 1007.57 1007.51 1007.39 1007.22 1007.00 1006.74 1006.46 1006.17 1005.87 1005.58 1005.30 1005.03 1004.78 1004.55 1004.35 1004.17 1004.02 1003.91 1003.83 1003.79 1003.79 1003.83 1003.91 1004.02 1004.17 1004.35 1004.55 1004.76
1008.47 1008.31 1008.12 1007.90 1007.69 1007.50 1007.34 1007.24 1007.20 1007.20 1007.24 1007.30 1007.36 1007.40 1007.39 1007.34 1007.22 1007.05 1006.82 1006.54 1006.23 1005.90 1005.56 1005.23 1004.92 1004.62 1004.35 1004.11 1003.89 1003.69 1003.52 1003.37 1003.24 1003.13 1003.05 1003.01 1002.99 1003.02 1003.08 1003.19 1003.33 1003.52 1003.73
1008.77 1008.57 1008.34 1008.10 1007.87 1007.67 1007.51 1007.40 1007.34 1007.32 1007.33 1007.35 1007.37 1007.35 1007.29 1007.18 1007.01 1006.78 1006.50 1006.19 1005.86 1005.51 1005.17 1004.85 1004.55 1004.28 1004.03 1003.80 1003.60 1003.40 1003.21 1003.03 1002.85 1002.67 1002.51 1002.38 1002.27 1002.20 1002.18 1002.22 1002.32 1002.48 1002.69
1009.03 1008.80 1008.56 1008.32 1008.10 1007.92 1007.77 1007.67 1007.60 1007.57 1007.55 1007.53 1007.50 1007.43 1007.31 1007.15 1006.93 1006.67 1006.37 1006.05 1005.72 1005.40 1005.09 1004.81 1004.56 1004.33 1004.12 1003.91 1003.71 1003.49 1003.26 1003.00 1002.72 1002.42 1002.12 1001.84 1001.59 1001.39 1001.26 1001.21 1001.25 1001.37 1001.58
1009.26 1009.03 1008.80 1008.59 1008.40 1008.24 1008.12 1008.03 1007.98 1007.93 1007.89 1007.84 1007.77 1007.65 1007.49 1007.29 1007.04 1006.76 1006.47 1006.17 1005.88 1005.61 1005.36 1005.14 1004.95 1004.77 1004.60 1004.40 1004.17 1003.90 1003.57 1003.19 1002.75 1002.29 1001.80 1001.33 1000.89 1000.53 1000.25 1000.09 1000.05 1000.13 1000.33
1009.47 1009.27 1009.07 1008.90 1008.75 1008.63 1008.55 1008.48 1008.44 1008.39 1008.34 1008.27 1008.16 1008.01 1007.82 1007.60 1007.35 1007.08 1006.80 1006.55 1006.31 1006.10 1005.93 1005.79 1005.65 1005.51 1005.35 1005.14 1004.85 1004.49 1004.03 1003.48 1002.86 1002.17 1001.46 1000.77 1000.13 999.57 999.14 998.86 998.73 998.77 998.96
1009.68 1009.51 1009.36 1009.23 1009.13 1009.05 1009.00 1008.96 1008.93 1008.89 1008.83 1008.74 1008.62 1008.45 1008.26 1008.03 1007.79 1007.55 1007.32 1007.11 1006.94 1006.80 1006.70 1006.61 1006.52 1006.40 1006.22 1005.96 1005.59 1005.10 1004.49 1003.75 1002.91 1002.00 1001.07 1000.15 999.30 998.56 997.97 997.57 997.37 997.36 997.55
1009.89 1009.76 1009.65 1009.56 1009.49 1009.44 1009.41 1009.39 1009.37 1009.33 1009.27 1009.18 1009.05 1008.89 1008.70 1008.50 1008.29 1008.08 1007.90 1007.75 1007.64 1007.56 1007.50 1007.44 1007.37 1007.24 1007.03 1006.70 1006.23 1005.61 1004.83 1003.91 1002.88 1001.77 1000.63 999.52 998.49 997.59 996.88 996.38 996.11 996.07 996.25
1010.07 1009.97 1009.88 1009.81 1009.76 1009.73 1009.70 1009.68 1009.66 1009.62 1009.56 1009.47 1009.36 1009.21 1009.05 1008.88 1008.71 1008.56 1008.43 1008.33 1008.27 1008.23 1008.20 1008.15 1008.07 1007.91 1007.65 1007.24 1006.68 1005.94 1005.03 1003.97 1002.78 1001.52 1000.23 998.99 997.83 996.83 996.04 995.47 995.15 995.08 995.25
1010.18 1010.08 1010.00 1009.93 1009.87 1009.82 1009.78 1009.75 1009.72 1009.68 1009.62 1009.55 1009.45 1009.34 1009.22 1009.10 1008.98 1008.88 1008.80 1008.75 1008.72 1008.71 1008.69 1008.64 1008.54 1008.34 1008.03 1007.56 1006.92 1006.10 1005.11 1003.97 1002.71 1001.37 1000.01 998.70 997.50 996.46 995.62 995.03 994.68 994.59 994.74
Thickness
5777 5774 5771 5768 5766 5763 5761 5759 5757 5755 5753 5752 5751 5750 5748 5747 5745 5743 5743 5741 5740 5739 5738 5737 5736 5736 5736 5737 5736 5734 5732 5730 5727 5732 5735 5735 5732 5730 5730 5729 5729 5729 5730
5776 5772 5768 5765 5763 5760 5758 5756 5754 5751 5750 5748 5747 5745 5744 5743 5741 5739 5738 5737 5735 5734 5734 5733 5732 5732 5730 5730 5729 5728 5727 5725 5723 5722 5725 5726 5725 5724 5723 5722 5724 5725 5724
5774 5769 5765 5762 5759 5757 5755 5753 5750 5748 5745 5744 5742 5740 5739 5738 5736 5735 5734 5733 5732 5731 5730 5728 5727 5726 5724 5724 5722 5722 5722 5723 5720 5718 5718 5719 5719 5719 5717 5717 5717 5716 5718
5771 5766 5761 5759 5756 5754 5751 5749 5746 5743 5741 5739 5738 5736 5734 5733 5732 5730 5730 5728 5727 5727 5726 5724 5723 5721 5719 5717 5717 5716 5716 5715 5714 5713 5712 5713 5712 5712 5710 5709 5709 5710 5710
5765 5761 5757 5755 5752 5749 5746 5744 5741 5739 5737 5734 5732 5731 5730 5729 5727 5725 5724 5724 5722 5721 5720 5719 5718 5716 5713 5711 5712 5710 5709 5708 5708 5707 5706 5706 5705 5703 5702 5702 5702 5702 5703
5760 5755 5752 5749 5746 5743 5740 5738 5735 5733 5731 5728 5726 5725 5724 5724 5719 5716 5715 5717 5716 5715 5714 5713 5712 5710 5707 5703 5702 5701 5700 5699 5699 5698 5699 5697 5696 5697 5696 5695 5694 5694 5694
5754 5749 5746 5743 5739 5736 5735 5732 5729 5727 5725 5722 5720 5719 5717 5715 5711 5708 5707 5709 5710 5709 5708 5706 5707 5707 5702 5700 5697 5695 5694 5693 5691 5691 5691 5691 5691 5690 5688 5687 5686 5686 5686
5747 5743 5740 5736 5733 5730 5727 5724 5721 5720 5718 5715 5713 5712 5710 5708 5704 5701 5700 5703 5704 5704 5702 5700 5698 5697 5696 5692 5691 5691 5690 5689 5687 5686 5686 5685 5685 5683 5680 5680 5679 5679 5680
5740 5737 5733 5730 5726 5723 5720 5716 5714 5712 5710 5709 5708 5706 5703 5701 5697 5695 5693 5697 5698 5698 5697 5695 5692 5690 5686 5683 5683 5683 5682 5682 5681 5679 5678 5677 5675 5673 5672 5672 5673 5672 5673
5733 5730 5727 5723 5720 5716 5713 5711 5709 5707 5705 5703 5701 5700 5697 5695 5690 5688 5685 5691 5691 5691 5690 5689 5684 5682 5678 5675 5675 5675 5673 5673 5673 5672 5670 5669 5669 5668 5666 5665 5667 5666 5667
5727 5723 5720 5717 5713 5710 5707 5705 5703 5701 5699 5697 5695 5694 5691 5689 5685 5682 5679 5682 5683 5684 5684 5683 5681 5674 5670 5667 5666 5667 5665 5663 5664 5664 5664 5664 5663 5662 5661 5660 5660 5659 5659
5718 5715 5711 5709 5708 5706 5701 5698 5696 5694 5692 5690 5688 5686 5687 5684 5680 5676 5673 5672 5673 5675 5675 5675 5673 5666 5663 5660 5659 5658 5655 5654 5657 5657 5656 5656 5655 5654 5653 5652 5651 5650 5649
5708 5705 5703 5701 5699 5698 5694 5692 5690 5687 5687 5686 5684 5682 5682 5681 5677 5671 5668 5666 5665 5665 5667 5663 5660 5657 5655 5655 5652 5650 5648 5649 5649 5647 5646 5646 5646 5645 5645 5643 5642 5641 5641
5699 5696 5694 5692 5691 5689 5687 5687 5684 5683 5681 5679 5677 5676 5675 5674 5671 5667 5664 5661 5657 5657 5657 5654 5651 5649 5648 5647 5646 5645 5643 5641 5640 5638 5638 5637 5636 5636 5636 5636 5635 5634 5634
5689 5688 5686 5685 5683 5680 5679 5677 5676 5674 5674 5670 5670 5669 5667 5665 5660 5654 5653 5653 5651 5649 5647 5647 5647 5646 5644 5643 5641 5639 5636 5634 5632 5631 5629 5628 5627 5627 5627 5627 5626 5626 5626
5679 5678 5678 5677 5675 5674 5672 5670 5666 5664 5662 5659 5657 5655 5655 5651 5647 5644 5641 5639 5637 5636 5637 5640 5640 5639 5637 5635 5633 5630 5628 5626 5625 5623 5622 5620 5619 5618 5618 5619 5619 5618 5619
5669 5668 5669 5668 5667 5665 5663 5662 5660 5657 5654 5651 5648 5645 5642 5640 5638 5634 5631 5629 5628 5627 5631 5633 5632 5631 5629 5627 5626 5624 5621 5619 5617 5616 5615 5613 5612 5611 5611 5611 5610 5611 5611
5660 5659 5658 5658 5657 5656 5654 5654 5654 5652 5650 5649 5643 5638 5635 5632 5629 5626 5623 5622 5624 5623 5626 5626 5625 5624 5622 5620 5619 5616 5614 5613 5611 5609 5608 5606 5605 5604 5604 5603 5603 5602 5603
5652 5651 5649 5649 5648 5646 5645 5645 5645 5643 5643 5641 5639 5635 5628 5625 5621 5618 5616 5619 5621 5621 5620 5619 5618 5617 5615 5613 5611 5608 5607 5606 5604 5603 5602 5600 5599 5598 5597 5596 5596 5593 5593
5642 5639 5637 5638 5639 5638 5636 5635 5634 5633 5633 5632 5630 5628 5625 5622 5620 5617 5614 5614 5614 5614 5612 5611 5610 5609 5608 5606 5604 5602 5600 5598 5597 5596 5595 5594 5592 5591 5590 5589 5589 5588 5588
5635 5632 5627 5629 5629 5628 5627 5626 5626 5625 5624 5622 5622 5620 5613 5615 5615 5612 5610 5608 5607 5606 5605 5603 5602 5601 5599 5597 5596 5594 5593 5592 5590 5588 5587 5585 5585 5584 5583 5583 5583 5582 5581
5626 5625 5623 5622 5620 5619 5618 5618 5617 5616 5616 5614 5613 5611 5605 5606 5606 5604 5602 5600 5599 5597 5596 5595 5594 5593 5590 5589 5588 5586 5585 5584 5582 5581 5579 5577 5576 5576 5576 5575 5575 5575 5574
5618 5618 5616 5614 5613 5610 5610 5610 5609 5608 5608 5607 5605 5603 5600 5598 5596 5594 5593 5592 5590 5589 5588 5586 5585 5584 5583 5580 5579 5578 5576 5575 5574 5572 5571 5570 5570 5569 5569 5569 5568 5568 5568
5611 5611 5609 5608 5606 5605 5604 5602 5601 5601 5600 5599 5597 5595 5592 5590 5588 5586 5585 5584 5583 5582 5580 5579 5577 5575 5573 5572 5571 5570 5568 5565 5564 5564 5562 5563 5564 5564 5563 5562 5562 5562 5562
5604 5603 5602 5600 5598 5597 5595 5594 5593 5593 5591 5590 5588 5586 5585 5583 5581 5579 5577 5576 5574 5573 5572 5571 5569 5568 5566 5564 5563 5561 5558 5555 5554 5554 5555 5556 5556 5557 5557 5557 5557 5557 5556
5594 5593 5592 5591 5589 5588 5587 5586 5585 5585 5583 5582 5580 5578 5577 5575 5574 5572 5570 5569 5567 5566 5564 5563 5562 5560 5558 5557 5554 5551 5549 5548 5547 5546 5547 5549 5550 5550 5549 5550 5550 5550 5549